| time (UTC) | temp C | wind direction | speed KPH | gust KPH | rain 1hr cm | rain 24hr cm | rain mn cm | humidity % | barometer mb |
| 20260504214531 | 24 | 337 | 0.0 | 9.7 | 0.00 | 0.00 | 0.00 | 23 | 1010.0 |
| 20260504213038 | 24 | 271 | 1.6 | 9.7 | 0.00 | 0.00 | 0.00 | 24 | 1010.0 |
| 20260504211534 | 25 | 159 | 8.0 | 16.1 | 0.00 | 0.00 | 0.00 | 21 | 1010.1 |
| 20260504210028 | 25 | 166 | 1.6 | 19.3 | 0.00 | 0.00 | 0.00 | 21 | 1009.9 |
| 20260504204528 | 25 | 106 | 4.8 | 14.5 | 0.00 | 0.00 | 0.00 | 19 | 1010.0 |
| 20260504203024 | 25 | 173 | 3.2 | 11.3 | 0.00 | 0.00 | 0.00 | 20 | 1010.0 |
| 20260504201521 | 25 | 314 | 0.0 | 14.5 | 0.00 | 0.00 | 0.00 | 20 | 1010.3 |
| 20260504200020 | 25 | 321 | 1.6 | 9.7 | 0.00 | 0.00 | 0.00 | 20 | 1010.4 |
| 20260504194522 | 25 | 146 | 3.2 | 12.9 | 0.00 | 0.00 | 0.00 | 20 | 1010.6 |
| 20260504193018 | 25 | 155 | 1.6 | 11.3 | 0.00 | 0.00 | 0.00 | 21 | 1010.8 |
| 20260504191512 | 25 | 308 | 3.2 | 17.7 | 0.00 | 0.00 | 0.00 | 21 | 1011.1 |
| 20260504190012 | 24 | 88 | 3.2 | 6.4 | 0.00 | 0.00 | 0.00 | 22 | 1011.5 |
| 20260504184521 | 23 | 197 | 3.2 | 20.9 | 0.00 | 0.00 | 0.00 | 21 | 1011.8 |
| 20260504183004 | 24 | 180 | 3.2 | 11.3 | 0.00 | 0.00 | 0.00 | 21 | 1012.0 |
| 20260504181502 | 23 | 141 | 6.4 | 14.5 | 0.00 | 0.00 | 0.00 | 22 | 1012.3 |
| 20260504180100 | 24 | 186 | 1.6 | 9.7 | 0.00 | 0.00 | 0.00 | 22 | 1012.6 |
| 20260504174559 | 23 | 124 | 1.6 | 8.0 | 0.00 | 0.00 | 0.00 | 22 | 1012.6 |
| 20260504173054 | 23 | 136 | 1.6 | 11.3 | 0.00 | 0.00 | 0.00 | 23 | 1012.9 |
| 20260504171551 | 22 | 175 | 3.2 | 9.7 | 0.00 | 0.00 | 0.00 | 23 | 1013.1 |
| 20260504081514 | 8 | 155 | 0.0 | 0.0 | 0.00 | 0.00 | 0.00 | 57 | 1016.1 |
| 20260504060105 | 6 | 151 | 0.0 | 0.0 | 0.00 | 0.00 | 0.00 | 65 | 1016.5 |
| 20260504044543 | 5 | 151 | 0.0 | 0.0 | 0.00 | 0.00 | 0.00 | 67 | 1016.6 |
| 20260504043043 | 5 | 151 | 0.0 | 0.0 | 0.00 | 0.00 | 0.00 | 67 | 1016.6 |
| 20260504041537 | 5 | 151 | 0.0 | 0.0 | 0.00 | 0.00 | 0.00 | 66 | 1016.5 |
| 20260504040033 | 5 | 152 | 0.0 | 0.0 | 0.00 | 0.00 | 0.00 | 66 | 1016.4 |
| 20260504034533 | 5 | 152 | 0.0 | 0.0 | 0.00 | 0.00 | 0.00 | 66 | 1016.6 |
| 20260504033035 | 5 | 151 | 0.0 | 0.0 | 0.00 | 0.00 | 0.00 | 66 | 1016.6 |
| 20260504031530 | 5 | 151 | 0.0 | 0.0 | 0.00 | 0.00 | 0.00 | 64 | 1016.4 |
| 20260504030029 | 5 | 151 | 0.0 | 0.0 | 0.00 | 0.00 | 0.00 | 62 | 1016.3 |
| 20260504024538 | 6 | 151 | 0.0 | 0.0 | 0.00 | 0.00 | 0.00 | 61 | 1016.2 |
| 20260504023028 | 6 | 152 | 0.0 | 0.0 | 0.00 | 0.00 | 0.00 | 59 | 1016.1 |
| 20260504021528 | 6 | 151 | 0.0 | 0.0 | 0.00 | 0.00 | 0.00 | 58 | 1016.2 |
| 20260504020029 | 7 | 151 | 0.0 | 0.0 | 0.00 | 0.00 | 0.00 | 57 | 1016.0 |
| 20260504014526 | 7 | 151 | 0.0 | 0.0 | 0.00 | 0.00 | 0.00 | 54 | 1015.8 |
| 20260504013035 | 7 | 151 | 0.0 | 0.0 | 0.00 | 0.00 | 0.00 | 52 | 1015.6 |
| 20260504011526 | 8 | 151 | 0.0 | 0.0 | 0.00 | 0.00 | 0.00 | 51 | 1015.5 |
| 20260504010025 | 9 | 151 | 0.0 | 0.0 | 0.00 | 0.00 | 0.00 | 48 | 1015.6 |
| 20260504004525 | 10 | 151 | 0.0 | 0.0 | 0.00 | 0.00 | 0.00 | 43 | 1015.4 |
| 20260504003037 | 11 | 151 | 0.0 | 0.0 | 0.00 | 0.00 | 0.00 | 43 | 1015.3 |
| 20260504001523 | 12 | 151 | 0.0 | 0.0 | 0.00 | 0.00 | 0.00 | 34 | 1015.2 |
| 20260504000023 | 13 | 151 | 0.0 | 0.0 | 0.00 | 0.00 | 0.00 | 27 | 1015.2 |
| 20260503234522 | 14 | 151 | 0.0 | 0.0 | 0.00 | 0.00 | 0.00 | 26 | 1015.0 |
| 20260503233026 | 15 | 151 | 0.0 | 4.8 | 0.00 | 0.00 | 0.00 | 26 | 1014.9 |
| 20260503231520 | 15 | 141 | 0.0 | 3.2 | 0.00 | 0.00 | 0.00 | 21 | 1014.8 |
| 20260503230019 | 15 | 86 | 0.0 | 3.2 | 0.00 | 0.00 | 0.00 | 22 | 1014.7 |
| 20260503224526 | 16 | 98 | 0.0 | 4.8 | 0.00 | 0.00 | 0.00 | 19 | 1014.9 |
| 20260503223017 | 16 | 242 | 0.0 | 4.8 | 0.00 | 0.00 | 0.00 | 19 | 1015.0 |
| 20260503221515 | 17 | 294 | 0.0 | 9.7 | 0.00 | 0.00 | 0.00 | 19 | 1014.9 |
| 20260503220020 | 17 | 198 | 1.6 | 11.3 | 0.00 | 0.00 | 0.00 | 18 | 1014.9 |